User: anonymous   Login
Location: Terra Rouge Observatory
(46.0000°N, 62.7500°W)
Time: 05:12:31
(UTC-03:00)
Language:

Landsat 5 - Orbit

View from above orbital plane
View from above orbital plane
View from above satellite
View from above satellite

Ground track
Ground track

The orbit data is extracted from the following two-line orbital elements,

1 14780U 84021A   15124.20013742  .00001656  00000-0  16386-3 0  9992
2 14780 098.0298 211.8193 0092976 198.7894 160.9884 14.90180291660397
Epoch (UTC): 04 May 2015 04:48:11
Eccentricity: 0.0092976
inclination: 98.0298°
perigee height: 532 km
apogee height: 662 km
right ascension of ascending node: 211.8193°
argument of perigee: 198.7894°
revolutions per day: 14.90180291
mean anomaly at epoch: 160.9884°
orbit number at epoch: 66039

The dashed part of the orbit path shows where the satellite is in the earth's shadow,  

DLR